This is the latest recevied weather packets stored in our database for station/object KA3WVU. If no packets are shown the sender has not sent any weather packets the latest 10 day(s).
| Time | Temp. | Humidity | Pressure | Rain* | Wind** | Luminosity | Snow |
|---|---|---|---|---|---|---|---|
| 1777116352 | 10° C | 68% | 1008.3 hPa | 0 mm | - | 21 W/m² | - |
| 1777116049 | 10° C | 67% | 1008.5 hPa | 0 mm | - | 14 W/m² | - |
| 1777115749 | 10° C | 68% | 1008.5 hPa | 0 mm | - | 17 W/m² | - |
| 1777115445 | 10° C | 67% | 1008.4 hPa | 0 mm | - | 13 W/m² | - |
| 1777115141 | 10° C | 68% | 1008.3 hPa | 0 mm | - | 14 W/m² | - |
| 1777114838 | 10° C | 69% | 1008.3 hPa | 0 mm | - | 13 W/m² | - |
| 1777114534 | 10° C | 68% | 1008.3 hPa | 0 mm | - | 11 W/m² | - |
| 1777114229 | 10° C | 69% | 1008.6 hPa | 0 mm | - | 11 W/m² | - |
| 1777113925 | 10° C | 69% | 1008.3 hPa | 0 mm | - | 10 W/m² | - |
| 1777113621 | 10° C | 70% | 1008.1 hPa | 0 mm | - | 9 W/m² | - |
| 1777113316 | 10° C | 68% | 1008.3 hPa | 0 mm | - | 6 W/m² | - |
| 1777113010 | 10° C | 68% | 1008 hPa | 0 mm | - | 4 W/m² | - |
| 1777112707 | 10° C | 67% | 1008.5 hPa | 0 mm | - | 2 W/m² | - |
| 1777112403 | 10° C | 68% | 1008.3 hPa | 0 mm | - | 1 W/m² | - |
| 1777112099 | 10° C | 68% | 1008.3 hPa | 0 mm | - | 0 W/m² | - |
| 1777111796 | 10° C | 67% | 1008.2 hPa | 0 mm | - | 0 W/m² | - |
| 1777111492 | 10° C | 68% | 1008.2 hPa | 0 mm | - | 0 W/m² | - |
| 1777111193 | 10.56° C | 68% | 1008.3 hPa | 0 mm | - | 0 W/m² | - |
| 1777110890 | 10.56° C | 67% | 1008.1 hPa | 0 mm | - | 0 W/m² | - |
| 1777110587 | 10.56° C | 68% | 1008.3 hPa | 0 mm | - | 0 W/m² | - |
| 1777110283 | 10.56° C | 69% | 1008.2 hPa | 0 mm | - | 0 W/m² | - |
| 1777109978 | 10.56° C | 69% | 1007.9 hPa | 0 mm | - | 0 W/m² | - |
| 1777109673 | 10.56° C | 69% | 1008.2 hPa | 0 mm | - | 0 W/m² | - |
| 1777109369 | 10.56° C | 70% | 1008.1 hPa | 0 mm | - | 0 W/m² | - |
| 1777109066 | 10.56° C | 70% | 1008.3 hPa | 0 mm | - | 0 W/m² | - |
* Rain latest hour (hover to see other rain measurements)
** Current wind speed in m/s (hover to see current wind gust speed)